This is the latest recevied weather packets stored in our database for station/object IW8XOI-10. If no packets are shown the sender has not sent any weather packets the latest 10 day(s).
| Time | Temp. | Humidity | Pressure | Rain* | Wind** | Luminosity | Snow |
|---|---|---|---|---|---|---|---|
| 1777607774 | 14.44° C | 51% | 1029.8 hPa | - | - | - | - |
| 1777604206 | 15° C | 51% | 1029.6 hPa | - | - | - | - |
| 1777604174 | 15° C | 51% | 1029.6 hPa | - | - | - | - |
| 1777600574 | 15.56° C | 51% | 1029.8 hPa | - | - | - | - |
| 1777596974 | 16.11° C | 50% | 1029.7 hPa | - | - | - | - |
| 1777593376 | 16.67° C | 50% | 1029.9 hPa | - | - | - | - |
| 1777590118 | 17.22° C | 50% | 1030.2 hPa | - | - | - | - |
| 1777589775 | 17.22° C | 50% | 1030.2 hPa | - | - | - | - |
| 1777586211 | 18.33° C | 50% | 1030.1 hPa | - | - | - | - |
| 1777586175 | 18.33° C | 50% | 1030.1 hPa | - | - | - | - |
| 1777582578 | 19.44° C | 49% | 1030 hPa | - | - | - | - |
| 1777578973 | 20.56° C | 48% | 1030.1 hPa | - | - | - | - |
| 1777575373 | 21.67° C | 48% | 1029.9 hPa | - | - | - | - |
| 1777571773 | 22.78° C | 48% | 1029 hPa | - | - | - | - |
| 1777568173 | 22.78° C | 49% | 1029 hPa | - | - | - | - |
| 1777564573 | 23.33° C | 49% | 1028.7 hPa | - | - | - | - |
| 1777560973 | 22.78° C | 50% | 1028.8 hPa | - | - | - | - |
| 1777557373 | 21.67° C | 50% | 1028.8 hPa | - | - | - | - |
| 1777553773 | 21.67° C | 50% | 1028.7 hPa | - | - | - | - |
| 1777550176 | 21.11° C | 50% | 1029 hPa | - | - | - | - |
| 1777546574 | 20.56° C | 50% | 1028.8 hPa | - | - | - | - |
| 1777542974 | 20.56° C | 50% | 1028.7 hPa | - | - | - | - |
| 1777539375 | 21.11° C | 49% | 1028.5 hPa | - | - | - | - |
| 1777535774 | 21.11° C | 50% | 1027.8 hPa | - | - | - | - |
| 1777532174 | 21.11° C | 50% | 1027.3 hPa | - | - | - | - |
* Rain since midnight (hover to see other rain measurements)
** Current wind speed in m/s (hover to see current wind gust speed)